SCP
-0 0 0 0 0 0 0 0 0 0 0 0 0 0 0 0 0 0 0 0 0 -0 -0 -0 -0 -0 0 0 0 -0 -0 -0 -0 -0 -0 -0 -0 -0 -0 -0 -0 -0 -0 -0 -0 -0 -0 -0 -0
0 0 0 0 0 0 0 0 0 0 0 0 0 0 0 0 0 0 0 0 0 -0 0 -0 -0 -0 -0 0 0 0 0 0 0 -0 -0 -0 -0 -0 -0 -0 0 0 -0 -0 -0 -0 -0 -0 -0
0 0 0 0 0 0 0 0 0 0 0 0 0 0 0 0 0 0 0 0 0 0 0 0 0 -0 -0 0 0 0 0 0 0 0 0 0 0 0 -0 0 0 0 0 -0 -0 0 0 0 0
0 0 0 0 0 0 0 0 0 0 0 0 0 0 0 0 0 0 0 0 0 0 0 0 0 0 0 0 0 0 0 0 0 0 0 0 0 0 0 0 0 0 0 0 0 0 0 0 0
0 0 0 0 0 0 -0 0 0 0 0 0 0 0 0 0 0 0 0 0 0 0 0 0 0 0 0 0 0 0 0 0 0 0 0 0 0 0 0 0 0 0 0 0 0 0 0 0 0
0 0 0 0 0 0 0 0 0 0 0 0 0 0 0 0 0 0 0 0 0 0 0 0 0 0 0 0 0 0 0 0 0 0 0 0 0 0 0 0 0 0 0 0 0 0 0 0 0
0 0 0 0 0 0 0 0 0 0 0 0 0 0 0 0 0 0 0 0 0 0 0 0 0 0 0 0 0 0 0 0 0 0 0 0 0 0 0 0 0 0 0 0 0 0 0 0 0
0 0 0 0 0 0 0 0 0 0 0 0 0 0 0 0 0 0 0 0 0 0 0 0 0 0 0 0 0 0 0 0 0 0 0 0 0 0 0 0 0 0 0 0 0 0 0 0 0
0 0 0 0 0 0 0 0 0 0 0 0 0 0 0 0 0 0 0 0 0 0 0 0 0 0 0 0 0 0 0 0 0 0 0 0 0 0 0 0 0 0 0 0 0 0 0 0 0
0 0 0 0 0 0 0 0 -0 0 0 0 0 0 0 0 0 0 0 0 0 0 0 0 0 0 0 0 0 0 0 0 0 0 0 0 0 0 0 0 0 0 0 0 0 0 0 0 0
0 0 0 0 0 0 0 0 0 0 -0 0 0 0 0 0 0 0 0 0 0 0 0 0 0 0 0 0 0 0 0 0 0 0 0 0 0 0 0 0 0 0 0 0 0 0 0 0 0
0 0 0 0 0 0 0 0 0 0 0 0 0 0 0 0 0 0 0 0 0 0 0 0 0 0 0 0 0 0 0 0 0 0 0 0 0 0 0 0 0 0 0 0 0 0 0 0 0
0 0 0 0 0 0 0 0 0 0 0 0 0 0 0 0 0 0 0 0 0 0 0 0 0 0 0 0 0 0 0 0 0 0 0 0 0 0 0 0 0 0 0 0 0 0 0 0 0
0 0 0 0 0 0 0 0 0 0 0 0 0 0 0 0 0 0 0 0 0 0 0 0 0 0 0 0 0 0 0 0 0 0 0 0 0 0 0 0 0 0 0 0 0 0 0 0 0
0 0 0 0 0 0 0 0 0 0 0 0 0 0 0 0 0 0 0 0 0 0 0 0 0 0 0 0 0 0 0 0 0 0 0 0 0 0 0 0 0 0 0 0 0 0 0 0 0
0 0 0 0 0 0 0 0 0 0 0 0 0 0 0 0 0 0 0 0 0 0 0 0 0 0 0 0 0 0 0 0 0 0 0 0 0 0 0 0 0 0 0 0 0 0 0 0 0
0 0 0 0 0 0 0 0 0 0 0 0 0 0 0 0 0 0 0 0 0 0 0 0 0 0 0 0 0 0 0 0 0 0 0 0 0 0 0 0 0 0 0 0 0 0 0 0 0
0 0 0 0 0 0 0 0 0 0 0 0 0 0 0 0 0 0 0 0 0 0 0 0 0 0 0 0 0 0 0 0 0 0 0 0 0 0 0 0 0 0 0 0 0 0 0 0 0
0 0 0 0 0 0 0 0 0 0 0 0 0 0 0 0 0 0 0 0 0 0 0 0 0 0 0 0 0 0 0 -0 0 0 0 0 0 0 0 0 0 0 0 0 0 0 0 0 0
0 0 0 0 0 0 0 0 0 0 0 0 0 0 0 0 0 0 0 0 0 0 0 0 0 0 0 0 0 0 0 -0 -0 0 0 0 0 0 0 0 0 0 0 0 0 0 0 0 0
0 0 0 0 0 0 0 0 0 0 0 0 0 0 0 0 0 0 0 0 0 0 0 0 0 0 0 0 0 0 0 0 -0 -0 0 0 0 0 0 0 0 0 0 0 0 0 0 0 0
0 0 0 0 0 0 0 0 0 0 0 0 0 0 0 0 0 0 0 0 0 0 0 0 0 0 0 0 -0 0 0 0 0 -0 -0 0 0 0 0 0 0 0 0 0 0 0 0 0 0
0 0 0 0 0 0 0 0 0 0 0 0 0 0 0 0 0 0 0 0 0 0 0 0 0 0 0 -0 0 0 0 0 0 0 0 -0 0 0 0 0 0 0 0 0 0 0 0 0 0
0 0 0 0 0 0 0 0 0 0 0 0 0 0 0 0 0 0 0 0 0 0 0 0 0 0 0 0 0 0 0 0 0 0 0 0 0 0 0 0 0 0 0 0 0 0 0 0 0
0 0 0 0 0 0 0 0 0 0 0 0 0 0 0 0 0 0 0 0 0 0 0 0 0 0 0 0 0 0 0 0 0 0 0 0 -0 0 0 0 0 0 0 0 0 0 0 0 0
0 0 0 0 0 0 0 0 0 0 0 0 0 0 0 0 0 0 0 0 0 0 0 0 0 0 0 0 0 0 0 0 0 0 0 0 0 -0 0 0 0 0 0 0 0 0 0 0 0
0 0 0 0 0 0 0 0 0 0 0 0 0 0 0 0 0 0 0 0 0 0 0 0 0 0 0 0 0 0 0 0 0 0 0 0 0 0 0 0 0 0 0 0 0 0 0 0 0
0 0 0 0 0 0 0 0 0 0 0 0 0 0 0 0 0 0 0 0 0 0 0 0 0 0 0 0 0 0 0 0 0 0 0 0 0 0 0 0 0 0 0 0 0 0 0 0 0
0 0 0 0 0 0 0 0 0 0 0 0 0 0 0 0 0 0 0 0 0 0 0 0 0 0 0 0 0 0 0 0 0 0 0 0 0 0 0 0 0 0 0 0 0 0 0 0 0
0 0 0 0 0 0 0 0 0 0 0 0 0 0 0 0 0 0 0 0 0 0 0 0 0 0 0 0 0 0 0 0 0 0 0 0 0 0 0 0 0 0 0 0 0 0 0 0 0
Wind_Speed_500mb
10 14 18 3 6 9 6 10 7 13 3 5 4 6 15 9 3 6 7 12 4 16 26 44 43 39 36 35 36 38 33 31 32 36 31 29 28 30 31 32 32 34 33 35 38 38 37 37 43
7 12 4 3 7 4 9 9 6 5 2 9 6 8 7 2 6 7 8 9 5 14 22 43 45 41 38 34 34 34 30 28 24 31 33 32 33 33 35 36 34 33 32 32 36 37 38 40 46
12 11 5 7 6 10 9 6 2 7 5 3 5 8 5 5 8 7 4 9 13 17 16 37 47 43 41 39 37 35 30 30 24 31 33 34 35 37 35 37 37 34 33 32 35 36 39 40 45
5 2 2 6 11 12 9 12 13 15 4 8 3 5 7 5 3 10 9 8 15 18 21 31 48 45 43 41 39 38 35 31 26 30 33 34 33 36 37 38 39 38 36 33 37 37 38 39 41
9 4 1 3 11 12 11 10 18 14 9 8 16 3 4 5 6 6 7 7 18 22 24 27 45 49 47 45 42 38 37 35 32 28 36 35 36 33 33 39 36 37 39 38 38 37 35 35 38
7 3 3 9 12 13 12 20 21 10 18 6 7 9 8 9 3 5 13 16 19 22 24 27 36 51 48 48 45 41 39 40 37 35 40 39 36 35 35 35 36 37 31 39 41 38 30 31 33
12 7 8 7 7 10 9 30 8 13 14 11 8 7 13 15 7 1 11 18 20 26 27 28 29 47 48 48 48 45 42 44 42 40 43 41 40 40 38 35 36 36 24 34 39 36 32 31 30
7 8 3 6 8 13 20 24 6 23 8 27 13 8 5 13 13 11 13 26 27 21 29 36 34 34 49 51 49 48 46 45 44 42 44 46 44 41 40 41 44 38 33 27 38 36 34 32 32
8 5 6 8 7 7 15 14 5 21 12 33 11 20 20 10 2 5 12 22 32 38 39 44 45 39 43 45 52 51 50 48 46 45 47 52 51 47 43 47 44 45 42 31 37 34 32 37 38
7 5 14 1 2 4 12 10 23 16 27 17 34 21 27 33 29 24 19 21 28 41 44 51 54 48 49 49 48 57 56 55 54 53 54 54 53 53 50 59 47 49 46 43 39 36 33 37 39
7 10 5 6 11 7 10 11 16 9 14 6 37 61 51 49 39 35 34 31 26 27 35 49 57 55 54 57 54 61 63 65 63 59 58 58 58 54 53 56 54 51 50 48 44 43 36 40 40
5 3 4 6 9 12 8 17 17 24 20 39 51 49 50 37 35 34 34 44 42 41 34 35 51 60 63 60 62 62 70 73 72 67 65 62 59 59 64 65 62 56 57 52 49 45 40 40 37
4 8 18 21 38 23 14 16 15 43 36 19 27 32 36 43 47 39 40 33 38 47 44 42 41 61 66 69 68 66 78 81 79 75 74 69 65 66 68 72 70 64 60 55 54 52 48 42 41
10 19 33 21 15 17 12 13 9 18 22 22 22 30 40 50 53 62 63 64 59 55 56 51 48 42 61 73 78 78 77 86 88 86 82 78 71 69 71 76 75 74 69 63 58 56 55 50 45
12 11 15 6 6 4 15 15 13 14 20 49 53 66 72 62 57 57 62 64 62 59 55 58 54 56 54 53 78 85 87 85 94 95 89 86 81 74 76 80 80 79 77 71 64 64 63 55 54
10 5 9 6 19 4 13 14 21 29 46 57 67 71 73 67 53 45 46 49 46 46 46 47 52 50 53 55 52 82 91 96 95 103 99 95 89 82 81 86 85 86 82 79 74 73 71 65 61
11 5 6 18 6 10 10 17 25 54 59 59 61 64 62 59 45 42 40 39 40 42 41 41 43 46 50 53 53 58 78 96 103 99 107 102 96 90 88 92 89 90 88 86 82 82 74 73 69
6 9 9 12 11 11 23 36 33 56 48 54 63 61 55 53 53 56 54 46 34 31 37 42 42 47 49 55 56 51 68 84 106 115 104 107 98 96 94 97 94 93 94 92 88 87 80 71 73
4 7 13 12 12 15 15 24 42 61 39 39 51 46 51 53 52 29 28 23 24 26 27 39 42 40 39 44 51 62 59 64 73 113 116 119 109 99 102 105 101 98 99 101 96 92 84 82 78
5 9 13 15 4 13 25 43 40 22 18 26 42 50 50 49 30 24 17 17 26 28 27 29 42 48 46 40 43 48 53 63 63 75 92 122 119 111 108 117 109 106 103 104 103 100 94 85 82
6 8 7 15 11 9 24 16 12 7 12 33 44 40 32 25 26 18 16 15 20 25 28 33 39 48 55 59 60 67 62 58 61 66 74 92 122 112 111 116 117 116 113 109 107 109 101 94 94
7 7 8 14 13 4 13 12 14 9 17 17 35 30 32 11 6 6 14 31 43 52 58 60 61 66 69 69 74 70 77 82 77 64 67 71 112 116 117 120 118 118 122 116 111 107 99 101 100
13 6 13 9 6 7 11 4 17 8 15 19 19 36 18 17 18 26 45 61 56 67 63 71 77 82 95 100 96 92 92 95 90 82 68 80 78 130 126 120 124 126 126 121 113 111 106 94 93
8 10 7 6 5 6 8 8 13 7 14 9 15 30 27 31 27 46 51 58 77 75 78 79 98 93 89 93 92 97 102 106 92 87 77 81 101 81 120 124 125 131 130 127 109 109 107 102 100
7 9 8 11 9 10 3 5 25 25 20 18 29 53 40 40 49 63 67 76 95 79 80 92 106 107 97 94 95 95 101 104 104 91 86 77 67 104 119 134 131 137 126 124 111 113 104 108 100
4 8 9 11 6 11 5 15 14 18 29 48 54 38 39 51 70 84 100 102 108 87 91 109 107 98 95 91 94 98 100 100 103 109 99 90 86 94 75 138 135 143 124 116 115 108 102 101 98
6 6 5 7 1 5 7 14 24 27 12 18 39 47 62 75 88 97 105 105 109 97 99 92 95 100 89 85 87 91 87 90 97 112 110 108 93 76 93 110 141 138 127 125 110 104 103 103 99
8 9 5 6 4 12 12 13 28 22 19 17 25 43 61 78 85 91 92 94 97 96 93 94 90 83 85 85 85 88 88 93 94 87 87 100 92 87 95 109 120 130 126 116 108 118 109 101 97
6 5 4 6 9 9 9 26 18 17 13 30 26 55 79 86 94 96 97 99 88 92 94 85 76 79 77 79 77 78 85 87 79 85 86 77 91 91 96 99 132 136 133 125 108 107 107 100 97
7 14 12 9 12 8 5 31 7 26 17 30 64 72 83 87 92 88 82 89 97 83 76 75 72 74 76 75 73 78 77 81 88 82 89 82 94 94 101 97 114 147 133 120 118 117 100 107 92
Wind_Direction_500mb
313 329 322 283 52 58 262 267 307 321 65 359 329 104 133 93 158 223 172 176 64 171 173 191 191 188 187 181 186 193 191 192 193 178 169 169 170 163 156 149 147 144 142 146 143 141 139 135 133
304 326 348 96 96 85 271 266 110 313 289 351 355 24 61 154 156 178 184 239 243 184 181 190 195 194 189 190 191 194 193 196 201 173 168 169 167 166 160 150 150 144 144 145 147 144 142 138 139
297 310 334 106 137 189 207 208 266 280 334 17 349 33 66 85 142 145 265 240 225 208 204 198 198 199 198 193 196 196 202 208 212 177 169 167 165 164 164 160 149 151 148 148 149 147 146 143 146
244 197 143 110 226 258 212 275 332 299 225 108 73 58 94 128 219 185 212 216 222 211 213 204 204 203 201 199 198 200 207 210 214 187 175 170 170 164 170 159 160 157 154 154 152 150 147 144 147
179 156 73 231 248 257 268 290 292 276 264 196 155 184 69 177 166 190 200 228 230 223 220 209 213 208 205 204 205 202 208 214 214 204 181 177 171 175 167 153 160 159 161 158 151 146 145 148 150
154 119 101 234 240 265 286 336 319 294 284 242 157 128 162 191 214 141 194 215 230 249 226 222 224 215 210 208 210 209 207 213 215 206 184 183 176 175 170 172 165 163 158 154 148 142 147 151 153
142 98 225 233 264 294 303 353 44 325 326 322 311 96 153 186 210 218 194 208 228 244 242 231 228 223 220 215 210 212 212 214 216 212 190 188 184 182 178 174 170 160 157 154 146 144 151 152 154
178 105 271 251 196 266 350 356 11 22 300 337 345 36 35 203 201 207 197 208 216 246 251 251 244 236 226 221 220 217 217 215 216 213 203 188 189 185 186 178 155 161 170 166 157 165 160 156 150
166 83 216 243 183 252 357 4 300 328 281 324 46 60 42 69 216 295 269 239 223 225 241 241 241 240 230 233 231 227 223 219 218 214 204 194 193 188 189 170 159 169 176 174 173 175 174 164 159
117 150 222 277 98 308 330 341 322 341 315 301 297 271 295 312 305 304 292 276 271 256 243 244 238 241 242 241 237 231 222 223 220 216 208 205 200 192 190 174 177 180 181 181 181 182 174 171 169
182 201 220 130 81 345 312 304 315 310 312 287 310 306 308 312 308 298 285 281 281 277 272 259 254 237 247 242 242 233 224 225 222 219 215 215 203 197 183 179 180 183 182 188 188 186 182 181 178
250 228 359 276 304 309 270 292 291 235 249 296 301 302 300 305 310 307 299 276 271 270 275 267 259 252 245 247 249 245 227 228 224 220 218 216 212 201 188 184 183 186 192 193 195 194 189 189 191
359 317 306 295 307 305 299 271 277 272 286 310 300 304 299 294 293 299 297 286 265 264 266 267 263 257 252 247 248 246 233 227 231 224 221 219 217 208 197 190 184 189 196 199 199 194 190 194 194
323 309 293 294 282 292 288 274 322 275 298 312 296 293 299 298 294 295 292 292 286 277 268 267 261 266 255 250 247 246 242 234 229 229 228 223 221 214 203 194 190 190 197 197 203 200 190 195 195
311 326 320 235 283 3 343 292 222 269 298 311 304 305 304 299 294 290 290 289 289 287 281 276 277 268 261 263 249 245 246 240 234 231 228 227 222 218 210 200 196 196 197 197 201 198 196 194 195
359 17 343 292 353 59 64 277 288 280 308 298 298 301 303 302 299 297 293 292 294 292 287 284 278 278 268 261 262 253 246 245 243 236 230 226 225 221 212 205 201 201 201 200 201 199 196 194 198
10 275 299 314 341 349 55 281 262 285 294 290 293 294 302 304 307 303 299 300 285 285 288 284 281 277 277 271 262 262 256 248 246 239 234 226 224 222 216 209 203 203 205 204 203 198 206 195 198
302 322 306 255 293 353 293 266 280 284 285 284 288 296 297 297 301 304 298 288 284 286 284 284 280 276 276 271 267 262 261 249 246 242 237 228 224 222 216 211 206 204 207 207 205 204 199 204 203
184 243 257 262 281 319 268 281 288 296 299 282 287 292 298 301 317 320 302 285 270 280 274 286 287 285 282 276 279 272 267 269 250 233 240 230 229 224 216 210 208 205 208 207 206 203 199 194 196
287 299 286 287 325 342 298 291 271 281 265 278 288 290 298 305 314 315 325 291 297 307 291 288 295 296 294 290 282 275 272 270 278 265 228 230 229 223 216 213 206 206 208 207 206 204 194 201 204
276 219 272 255 321 258 317 302 324 323 277 289 302 301 305 297 300 283 266 281 289 288 290 292 282 278 286 292 289 285 282 283 270 264 263 225 228 224 220 215 210 205 208 207 207 206 213 208 198
280 192 263 285 12 267 64 286 306 285 289 295 293 290 306 309 353 1 325 310 307 310 299 299 291 283 279 279 277 276 278 279 278 280 269 270 219 227 220 216 213 209 207 210 212 216 215 221 208
236 335 281 280 205 42 335 67 272 313 277 275 272 302 273 272 281 305 315 312 308 309 306 302 299 290 283 282 272 269 268 269 271 271 270 254 237 222 218 220 213 211 214 210 213 214 217 219 218
334 307 18 21 119 16 245 129 272 240 221 231 259 299 263 288 283 315 323 315 308 300 302 298 307 299 289 283 274 267 264 262 263 263 256 254 254 231 219 220 214 213 211 213 213 216 217 220 218
52 33 327 344 5 226 189 31 244 266 246 251 273 284 259 296 289 305 307 310 309 294 296 298 304 303 295 285 278 269 262 257 253 253 250 248 250 247 208 217 217 214 212 213 214 218 218 218 219
228 166 154 260 280 274 118 244 246 240 274 283 284 270 282 299 303 305 312 310 305 293 294 304 302 293 286 277 270 270 265 256 250 246 244 247 243 237 235 214 214 216 210 212 215 219 220 216 221
178 213 171 96 156 358 240 284 285 270 261 282 299 287 297 309 307 305 308 307 303 298 298 292 292 289 284 276 268 263 257 255 251 245 242 242 243 244 227 211 211 216 209 210 212 216 217 218 220
181 156 78 2 330 288 263 265 248 282 286 292 296 292 301 305 303 303 302 299 303 301 296 292 291 280 278 274 267 262 256 251 249 245 243 242 235 229 228 231 215 213 211 211 206 215 216 216 217
160 217 144 123 166 201 304 284 215 247 263 294 292 300 308 307 307 305 305 308 302 297 295 293 285 280 276 269 270 263 257 250 241 237 229 224 223 219 224 224 221 212 205 206 208 207 212 217 213
197 197 156 147 241 230 194 268 254 273 277 308 310 307 306 307 305 307 309 306 304 302 298 294 288 283 281 285 279 269 259 247 241 231 227 215 224 219 221 223 210 208 204 206 206 214 204 212 209
Wind_Speed_850mb
10 14 18 3 6 9 6 10 7 13 3 5 4 6 15 9 3 6 7 12 4 16 26 44 43 39 36 35 36 38 33 31 32 36 31 29 28 30 31 32 32 34 33 35 38 38 37 37 43
7 12 4 3 7 4 9 9 6 5 2 9 6 8 7 2 6 7 8 9 5 14 22 43 45 41 38 34 34 34 30 28 24 31 33 32 33 33 35 36 34 33 32 32 36 37 38 40 46
12 11 5 7 6 10 9 6 2 7 5 3 5 8 5 5 8 7 4 9 13 17 16 37 47 43 41 39 37 35 30 30 24 31 33 34 35 37 35 37 37 34 33 32 35 36 39 40 45
5 2 2 6 11 12 9 12 13 15 4 8 3 5 7 5 3 10 9 8 15 18 21 31 48 45 43 41 39 38 35 31 26 30 33 34 33 36 37 38 39 38 36 33 37 37 38 39 41
9 4 1 3 11 12 11 10 18 14 9 8 16 3 4 5 6 6 7 7 18 22 24 27 45 49 47 45 42 38 37 35 32 28 36 35 36 33 33 39 36 37 39 38 38 37 35 35 38
7 3 3 9 12 13 12 20 21 10 18 6 7 9 8 9 3 5 13 16 19 22 24 27 36 51 48 48 45 41 39 40 37 35 40 39 36 35 35 35 36 37 31 39 41 38 30 31 33
12 7 8 7 7 10 9 30 8 13 14 11 8 7 13 15 7 1 11 18 20 26 27 28 29 47 48 48 48 45 42 44 42 40 43 41 40 40 38 35 36 36 24 34 39 36 32 31 30
7 8 3 6 8 13 20 24 6 23 8 27 13 8 5 13 13 11 13 26 27 21 29 36 34 34 49 51 49 48 46 45 44 42 44 46 44 41 40 41 44 38 33 27 38 36 34 32 32
8 5 6 8 7 7 15 14 5 21 12 33 11 20 20 10 2 5 12 22 32 38 39 44 45 39 43 45 52 51 50 48 46 45 47 52 51 47 43 47 44 45 42 31 37 34 32 37 38
7 5 14 1 2 4 12 10 23 16 27 17 34 21 27 33 29 24 19 21 28 41 44 51 54 48 49 49 48 57 56 55 54 53 54 54 53 53 50 59 47 49 46 43 39 36 33 37 39
7 10 5 6 11 7 10 11 16 9 14 6 37 61 51 49 39 35 34 31 26 27 35 49 57 55 54 57 54 61 63 65 63 59 58 58 58 54 53 56 54 51 50 48 44 43 36 40 40
5 3 4 6 9 12 8 17 17 24 20 39 51 49 50 37 35 34 34 44 42 41 34 35 51 60 63 60 62 62 70 73 72 67 65 62 59 59 64 65 62 56 57 52 49 45 40 40 37
4 8 18 21 38 23 14 16 15 43 36 19 27 32 36 43 47 39 40 33 38 47 44 42 41 61 66 69 68 66 78 81 79 75 74 69 65 66 68 72 70 64 60 55 54 52 48 42 41
10 19 33 21 15 17 12 13 9 18 22 22 22 30 40 50 53 62 63 64 59 55 56 51 48 42 61 73 78 78 77 86 88 86 82 78 71 69 71 76 75 74 69 63 58 56 55 50 45
12 11 15 6 6 4 15 15 13 14 20 49 53 66 72 62 57 57 62 64 62 59 55 58 54 56 54 53 78 85 87 85 94 95 89 86 81 74 76 80 80 79 77 71 64 64 63 55 54
10 5 9 6 19 4 13 14 21 29 46 57 67 71 73 67 53 45 46 49 46 46 46 47 52 50 53 55 52 82 91 96 95 103 99 95 89 82 81 86 85 86 82 79 74 73 71 65 61
11 5 6 18 6 10 10 17 25 54 59 59 61 64 62 59 45 42 40 39 40 42 41 41 43 46 50 53 53 58 78 96 103 99 107 102 96 90 88 92 89 90 88 86 82 82 74 73 69
6 9 9 12 11 11 23 36 33 56 48 54 63 61 55 53 53 56 54 46 34 31 37 42 42 47 49 55 56 51 68 84 106 115 104 107 98 96 94 97 94 93 94 92 88 87 80 71 73
4 7 13 12 12 15 15 24 42 61 39 39 51 46 51 53 52 29 28 23 24 26 27 39 42 40 39 44 51 62 59 64 73 113 116 119 109 99 102 105 101 98 99 101 96 92 84 82 78
5 9 13 15 4 13 25 43 40 22 18 26 42 50 50 49 30 24 17 17 26 28 27 29 42 48 46 40 43 48 53 63 63 75 92 122 119 111 108 117 109 106 103 104 103 100 94 85 82
6 8 7 15 11 9 24 16 12 7 12 33 44 40 32 25 26 18 16 15 20 25 28 33 39 48 55 59 60 67 62 58 61 66 74 92 122 112 111 116 117 116 113 109 107 109 101 94 94
7 7 8 14 13 4 13 12 14 9 17 17 35 30 32 11 6 6 14 31 43 52 58 60 61 66 69 69 74 70 77 82 77 64 67 71 112 116 117 120 118 118 122 116 111 107 99 101 100
13 6 13 9 6 7 11 4 17 8 15 19 19 36 18 17 18 26 45 61 56 67 63 71 77 82 95 100 96 92 92 95 90 82 68 80 78 130 126 120 124 126 126 121 113 111 106 94 93
8 10 7 6 5 6 8 8 13 7 14 9 15 30 27 31 27 46 51 58 77 75 78 79 98 93 89 93 92 97 102 106 92 87 77 81 101 81 120 124 125 131 130 127 109 109 107 102 100
7 9 8 11 9 10 3 5 25 25 20 18 29 53 40 40 49 63 67 76 95 79 80 92 106 107 97 94 95 95 101 104 104 91 86 77 67 104 119 134 131 137 126 124 111 113 104 108 100
4 8 9 11 6 11 5 15 14 18 29 48 54 38 39 51 70 84 100 102 108 87 91 109 107 98 95 91 94 98 100 100 103 109 99 90 86 94 75 138 135 143 124 116 115 108 102 101 98
6 6 5 7 1 5 7 14 24 27 12 18 39 47 62 75 88 97 105 105 109 97 99 92 95 100 89 85 87 91 87 90 97 112 110 108 93 76 93 110 141 138 127 125 110 104 103 103 99
8 9 5 6 4 12 12 13 28 22 19 17 25 43 61 78 85 91 92 94 97 96 93 94 90 83 85 85 85 88 88 93 94 87 87 100 92 87 95 109 120 130 126 116 108 118 109 101 97
6 5 4 6 9 9 9 26 18 17 13 30 26 55 79 86 94 96 97 99 88 92 94 85 76 79 77 79 77 78 85 87 79 85 86 77 91 91 96 99 132 136 133 125 108 107 107 100 97
7 14 12 9 12 8 5 31 7 26 17 30 64 72 83 87 92 88 82 89 97 83 76 75 72 74 76 75 73 78 77 81 88 82 89 82 94 94 101 97 114 147 133 120 118 117 100 107 92
Wind_Direction_850mb
313 329 322 283 52 58 262 267 307 321 65 359 329 104 133 93 158 223 172 176 64 171 173 191 191 188 187 181 186 193 191 192 193 178 169 169 170 163 156 149 147 144 142 146 143 141 139 135 133
304 326 348 96 96 85 271 266 110 313 289 351 355 24 61 154 156 178 184 239 243 184 181 190 195 194 189 190 191 194 193 196 201 173 168 169 167 166 160 150 150 144 144 145 147 144 142 138 139
297 310 334 106 137 189 207 208 266 280 334 17 349 33 66 85 142 145 265 240 225 208 204 198 198 199 198 193 196 196 202 208 212 177 169 167 165 164 164 160 149 151 148 148 149 147 146 143 146
244 197 143 110 226 258 212 275 332 299 225 108 73 58 94 128 219 185 212 216 222 211 213 204 204 203 201 199 198 200 207 210 214 187 175 170 170 164 170 159 160 157 154 154 152 150 147 144 147
179 156 73 231 248 257 268 290 292 276 264 196 155 184 69 177 166 190 200 228 230 223 220 209 213 208 205 204 205 202 208 214 214 204 181 177 171 175 167 153 160 159 161 158 151 146 145 148 150
154 119 101 234 240 265 286 336 319 294 284 242 157 128 162 191 214 141 194 215 230 249 226 222 224 215 210 208 210 209 207 213 215 206 184 183 176 175 170 172 165 163 158 154 148 142 147 151 153
142 98 225 233 264 294 303 353 44 325 326 322 311 96 153 186 210 218 194 208 228 244 242 231 228 223 220 215 210 212 212 214 216 212 190 188 184 182 178 174 170 160 157 154 146 144 151 152 154
178 105 271 251 196 266 350 356 11 22 300 337 345 36 35 203 201 207 197 208 216 246 251 251 244 236 226 221 220 217 217 215 216 213 203 188 189 185 186 178 155 161 170 166 157 165 160 156 150
166 83 216 243 183 252 357 4 300 328 281 324 46 60 42 69 216 295 269 239 223 225 241 241 241 240 230 233 231 227 223 219 218 214 204 194 193 188 189 170 159 169 176 174 173 175 174 164 159
117 150 222 277 98 308 330 341 322 341 315 301 297 271 295 312 305 304 292 276 271 256 243 244 238 241 242 241 237 231 222 223 220 216 208 205 200 192 190 174 177 180 181 181 181 182 174 171 169
182 201 220 130 81 345 312 304 315 310 312 287 310 306 308 312 308 298 285 281 281 277 272 259 254 237 247 242 242 233 224 225 222 219 215 215 203 197 183 179 180 183 182 188 188 186 182 181 178
250 228 359 276 304 309 270 292 291 235 249 296 301 302 300 305 310 307 299 276 271 270 275 267 259 252 245 247 249 245 227 228 224 220 218 216 212 201 188 184 183 186 192 193 195 194 189 189 191
359 317 306 295 307 305 299 271 277 272 286 310 300 304 299 294 293 299 297 286 265 264 266 267 263 257 252 247 248 246 233 227 231 224 221 219 217 208 197 190 184 189 196 199 199 194 190 194 194
323 309 293 294 282 292 288 274 322 275 298 312 296 293 299 298 294 295 292 292 286 277 268 267 261 266 255 250 247 246 242 234 229 229 228 223 221 214 203 194 190 190 197 197 203 200 190 195 195
311 326 320 235 283 3 343 292 222 269 298 311 304 305 304 299 294 290 290 289 289 287 281 276 277 268 261 263 249 245 246 240 234 231 228 227 222 218 210 200 196 196 197 197 201 198 196 194 195
359 17 343 292 353 59 64 277 288 280 308 298 298 301 303 302 299 297 293 292 294 292 287 284 278 278 268 261 262 253 246 245 243 236 230 226 225 221 212 205 201 201 201 200 201 199 196 194 198
10 275 299 314 341 349 55 281 262 285 294 290 293 294 302 304 307 303 299 300 285 285 288 284 281 277 277 271 262 262 256 248 246 239 234 226 224 222 216 209 203 203 205 204 203 198 206 195 198
302 322 306 255 293 353 293 266 280 284 285 284 288 296 297 297 301 304 298 288 284 286 284 284 280 276 276 271 267 262 261 249 246 242 237 228 224 222 216 211 206 204 207 207 205 204 199 204 203
184 243 257 262 281 319 268 281 288 296 299 282 287 292 298 301 317 320 302 285 270 280 274 286 287 285 282 276 279 272 267 269 250 233 240 230 229 224 216 210 208 205 208 207 206 203 199 194 196
287 299 286 287 325 342 298 291 271 281 265 278 288 290 298 305 314 315 325 291 297 307 291 288 295 296 294 290 282 275 272 270 278 265 228 230 229 223 216 213 206 206 208 207 206 204 194 201 204
276 219 272 255 321 258 317 302 324 323 277 289 302 301 305 297 300 283 266 281 289 288 290 292 282 278 286 292 289 285 282 283 270 264 263 225 228 224 220 215 210 205 208 207 207 206 213 208 198
280 192 263 285 12 267 64 286 306 285 289 295 293 290 306 309 353 1 325 310 307 310 299 299 291 283 279 279 277 276 278 279 278 280 269 270 219 227 220 216 213 209 207 210 212 216 215 221 208
236 335 281 280 205 42 335 67 272 313 277 275 272 302 273 272 281 305 315 312 308 309 306 302 299 290 283 282 272 269 268 269 271 271 270 254 237 222 218 220 213 211 214 210 213 214 217 219 218
334 307 18 21 119 16 245 129 272 240 221 231 259 299 263 288 283 315 323 315 308 300 302 298 307 299 289 283 274 267 264 262 263 263 256 254 254 231 219 220 214 213 211 213 213 216 217 220 218
52 33 327 344 5 226 189 31 244 266 246 251 273 284 259 296 289 305 307 310 309 294 296 298 304 303 295 285 278 269 262 257 253 253 250 248 250 247 208 217 217 214 212 213 214 218 218 218 219
228 166 154 260 280 274 118 244 246 240 274 283 284 270 282 299 303 305 312 310 305 293 294 304 302 293 286 277 270 270 265 256 250 246 244 247 243 237 235 214 214 216 210 212 215 219 220 216 221
178 213 171 96 156 358 240 284 285 270 261 282 299 287 297 309 307 305 308 307 303 298 298 292 292 289 284 276 268 263 257 255 251 245 242 242 243 244 227 211 211 216 209 210 212 216 217 218 220
181 156 78 2 330 288 263 265 248 282 286 292 296 292 301 305 303 303 302 299 303 301 296 292 291 280 278 274 267 262 256 251 249 245 243 242 235 229 228 231 215 213 211 211 206 215 216 216 217
160 217 144 123 166 201 304 284 215 247 263 294 292 300 308 307 307 305 305 308 302 297 295 293 285 280 276 269 270 263 257 250 241 237 229 224 223 219 224 224 221 212 205 206 208 207 212 217 213
197 197 156 147 241 230 194 268 254 273 277 308 310 307 306 307 305 307 309 306 304 302 298 294 288 283 281 285 279 269 259 247 241 231 227 215 224 219 221 223 210 208 204 206 206 214 204 212 209